HULIANWANG DIGUI-126

导读 | 豆包AI

HULIANWANG DIGUI-126是中国于2025年12月11日发射的低轨互联网通信卫星,隶属于中国卫星互联网星座组网工程。作为天地一体化网络建设的组成部分,该卫星运行于近地轨道,依托低轨传输时延低、覆盖广的优势,可为全球偏远地区、海洋、航空等传统地面通信盲区提供宽带互联网接入服务,支撑手机直连卫星、6G天地融合等新技术落地,助力中国构建全球覆盖的卫星互联网通信体系,推动商业航天与数字基础设施建设发展。

基本信息
目录编号:
67066
目录名称:
HULIANWANG DIGUI-126
国际标识:
2025-295H
轨道中心:
EARTH
卫星名称:
HULIANWANG DIGUI-126
卫星全名:
HULIANWANG DIGUI-126
卫星状态:
在轨 (已飞行114 天)
发射日期:
2025-12-11 UTC
国别 :
中国 (CN)
星等 :
--
轨道信息
数据来源 国际轨道数据 AOE轨道数据
星历时间 2026-04-04T03:41:58+0800
6小时前
查看轨道信息
2026-03-30T12:00:00+0800
4天前
查看轨道信息
半长轴 7527.453km 7527.471km
偏心率 0.0000219 0.0000142
轨道倾角 49.999° 50.000°
近地点辐角 162.120° 101.776°
升交点赤经 291.938° 308.632°
平近点角 197.968° 291.786°
近地点 1149.151km 1149.227km
远地点 1149.481km 1149.441km
周期 108.326分钟 108.326分钟
每日圈数 13.293236 13.293189
详细信息
使用方式:
暂无
2D轨道图
3D轨道图
轨道高度分析图
轨道倾角分析图
轨道综合分析图
查看轨道综合分析图